SAS251 ESGG-ESSA

Flight info

Callsign SAS251
Flight time 0h 39m
Altitude 29000
Route LABAN N873 ARS T317 ELTOK
Aircraft A20N/M-SDE2E3FGHIRWXY/LB1

Departure

Time 2026-05-04 17:00
Airport Göteborg Landvetter Airport (ESGG)

Arrival

Time 2026-05-04 17:40
Airport Stockholm-Arlanda Airport (ESSA)
Time Latitude Longitude Altitude Speed Heading
2026-05-04 16:39 57.67128 12.29623 515 ft 0 kts 116°
2026-05-04 16:51 57.67133 12.29606 515 ft 2 kts 103°
2026-05-04 16:52 57.67126 12.29553 514 ft 2 kts 47°
2026-05-04 16:52 57.67119 12.29541 514 ft 0 kts 28°
2026-05-04 16:53 57.67112 12.29535 514 ft 0 kts 25°
2026-05-04 16:56 57.67160 12.29535 514 ft 10 kts 349°
2026-05-04 16:56 57.67387 12.29485 514 ft 6 kts 14°
2026-05-04 16:57 57.67423 12.29422 514 ft 10 kts 295°
2026-05-04 16:57 57.67455 12.29262 514 ft 0 kts 275°
2026-05-04 16:59 57.67450 12.29099 514 ft 17 kts 250°
2026-05-04 17:00 57.65624 12.27354 965 ft 157 kts 210°
2026-05-04 17:00 57.63120 12.25211 2949 ft 170 kts 200°
2026-05-04 17:01 57.60508 12.26471 4000 ft 219 kts 162°
2026-05-04 17:01 57.57627 12.29175 4751 ft 245 kts 135°
2026-05-04 17:02 57.57082 12.35511 5335 ft 280 kts 64°
2026-05-04 17:02 57.58411 12.41086 6805 ft 296 kts 63°
2026-05-04 17:03 57.59202 12.44590 7822 ft 302 kts 64°
2026-05-04 17:03 57.60012 12.48212 8814 ft 307 kts 59°
2026-05-04 17:03 57.62779 12.54145 10634 ft 311 kts 36°
2026-05-04 17:04 57.66116 12.59896 11772 ft 349 kts 38°
2026-05-04 17:04 57.69775 12.66610 12682 ft 387 kts 41°
2026-05-04 17:05 57.73709 12.74080 13727 ft 419 kts 41°
2026-05-04 17:05 57.77812 12.81983 15495 ft 428 kts 41°
2026-05-04 17:06 57.81984 12.90050 16836 ft 439 kts 41°
2026-05-04 17:06 57.84129 12.94211 17512 ft 443 kts 41°
2026-05-04 17:07 57.88429 13.02571 18829 ft 450 kts 41°
2026-05-04 17:07 57.89892 13.05418 19236 ft 453 kts 41°
2026-05-04 17:07 57.92814 13.11111 20002 ft 460 kts 41°
2026-05-04 17:07 57.95058 13.15496 20581 ft 465 kts 41°
2026-05-04 17:08 57.97306 13.19899 21076 ft 471 kts 41°
2026-05-04 17:08 58.01874 13.28870 22051 ft 481 kts 41°
2026-05-04 17:08 58.04195 13.33444 22561 ft 485 kts 41°
2026-05-04 17:09 58.06554 13.38102 23047 ft 490 kts 41°
2026-05-04 17:09 58.08891 13.42727 23537 ft 493 kts 41°
2026-05-04 17:09 58.11264 13.47434 23989 ft 497 kts 41°
2026-05-04 17:10 58.16040 13.56939 25184 ft 496 kts 41°
2026-05-04 17:10 58.23113 13.71087 27053 ft 491 kts 42°
2026-05-04 17:11 58.25482 13.75840 27577 ft 491 kts 42°
2026-05-04 17:11 58.27856 13.80615 28008 ft 493 kts 42°
2026-05-04 17:11 58.32564 13.90112 28736 ft 497 kts 42°
2026-05-04 17:12 58.34933 13.94906 28761 ft 499 kts 42°
2026-05-04 17:13 58.46788 14.19059 28752 ft 500 kts 41°
2026-05-04 17:14 58.56239 14.38497 28752 ft 500 kts 41°
2026-05-04 17:15 58.63327 14.53185 28749 ft 499 kts 41°
2026-05-04 17:15 58.67942 14.62819 28737 ft 474 kts 41°
2026-05-04 17:16 58.72209 14.71777 28722 ft 438 kts 42°
2026-05-04 17:16 58.78050 14.84067 28710 ft 390 kts 41°
2026-05-04 17:17 58.79832 14.87828 28700 ft 375 kts 41°
2026-05-04 17:17 58.85168 14.99036 28721 ft 401 kts 41°
2026-05-04 17:18 58.87070 15.03041 28721 ft 419 kts 41°
2026-05-04 17:18 58.91158 15.11718 28719 ft 454 kts 42°
2026-05-04 17:19 58.95524 15.21054 28715 ft 484 kts 42°
2026-05-04 17:19 59.00152 15.30992 28711 ft 508 kts 42°
2026-05-04 17:20 59.04972 15.41400 28470 ft 508 kts 42°
2026-05-04 17:20 59.09585 15.51431 27967 ft 497 kts 42°
2026-05-04 17:20 59.11903 15.56467 27710 ft 495 kts 42°
2026-05-04 17:21 59.16480 15.66439 27201 ft 492 kts 43°
2026-05-04 17:21 59.21009 15.76349 26697 ft 490 kts 43°
2026-05-04 17:22 59.23259 15.81287 26298 ft 489 kts 43°
2026-05-04 17:22 59.25531 15.86288 25750 ft 484 kts 43°
2026-05-04 17:23 59.32346 16.01335 25096 ft 500 kts 43°
2026-05-04 17:23 59.34628 16.06413 24793 ft 492 kts 43°
2026-05-04 17:23 59.39086 16.16369 23720 ft 477 kts 43°
2026-05-04 17:24 59.41249 16.21259 23175 ft 472 kts 45°
2026-05-04 17:24 59.47261 16.36226 21430 ft 467 kts 48°
2026-05-04 17:25 59.48981 16.41884 21476 ft 495 kts 60°
2026-05-04 17:25 59.51680 16.54452 22930 ft 503 kts 64°
2026-05-04 17:26 59.54361 16.67103 23486 ft 503 kts 64°
2026-05-04 17:26 59.58579 16.86119 24477 ft 500 kts 64°
2026-05-04 17:27 59.61298 16.98338 23548 ft 475 kts 63°
2026-05-04 17:27 59.63934 17.10227 21163 ft 465 kts 63°
2026-05-04 17:28 59.66455 17.21654 18703 ft 447 kts 63°
2026-05-04 17:29 59.69228 17.38417 15057 ft 422 kts 90°
2026-05-04 17:29 59.68637 17.52600 11888 ft 400 kts 97°
2026-05-04 17:30 59.67670 17.68382 8094 ft 372 kts 98°
2026-05-04 17:31 59.67073 17.77924 6813 ft 327 kts 98°
2026-05-04 17:31 59.66458 17.90447 6653 ft 302 kts 82°
2026-05-04 17:32 59.68312 17.97730 6670 ft 297 kts 49°
2026-05-04 17:33 59.72167 18.07235 6661 ft 296 kts 47°
2026-05-04 17:33 59.73467 18.10404 6670 ft 296 kts 47°
2026-05-04 17:34 59.77498 18.20008 4425 ft 305 kts 39°
2026-05-04 17:34 59.79264 18.22098 3537 ft 294 kts 13°
2026-05-04 17:35 59.83880 18.18422 2439 ft 232 kts 286°
2026-05-04 17:35 59.83832 18.12543 2448 ft 211 kts 258°
2026-05-04 17:35 59.83564 18.09687 2449 ft 211 kts 258°
2026-05-04 17:36 59.83183 18.06900 2442 ft 211 kts 242°
2026-05-04 17:36 59.82307 18.04553 2450 ft 211 kts 230°
2026-05-04 17:36 59.81269 18.02507 2444 ft 212 kts 215°
2026-05-04 17:36 59.79910 18.01372 2449 ft 216 kts 199°
2026-05-04 17:37 59.78443 18.00748 2449 ft 218 kts 194°
2026-05-04 17:37 59.76942 18.00246 2425 ft 216 kts 194°
2026-05-04 17:37 59.75477 17.99750 2228 ft 211 kts 194°
2026-05-04 17:37 59.74063 17.99241 1951 ft 209 kts 194°
2026-05-04 17:38 59.72642 17.98718 1674 ft 208 kts 194°
2026-05-04 17:38 59.71243 17.98209 1436 ft 193 kts 194°
2026-05-04 17:38 59.70007 17.97764 1225 ft 174 kts 195°
2026-05-04 17:38 59.68855 17.97344 951 ft 162 kts 195°
2026-05-04 17:39 59.66848 17.96637 583 ft 133 kts 197°
2026-05-04 17:39 59.65940 17.96268 377 ft 135 kts 191°
2026-05-04 17:39 59.65023 17.95944 174 ft 129 kts 193°
2026-05-04 17:40 59.64193 17.95632 110 ft 106 kts 192°
2026-05-04 17:40 59.63766 17.95472 116 ft 19 kts 190°
2026-05-04 17:40 59.63693 17.95447 118 ft 32 kts 192°
2026-05-04 17:40 59.63429 17.95298 125 ft 39 kts 208°
2026-05-04 17:41 59.63257 17.95057 129 ft 18 kts 232°
2026-05-04 17:41 59.63297 17.94905 127 ft 14 kts
2026-05-04 17:41 59.63321 17.94909 127 ft 0 kts
2026-05-04 17:42 59.63374 17.94927 125 ft 11 kts 10°
2026-05-04 17:42 59.63461 17.94957 123 ft 14 kts 10°
2026-05-04 17:42 59.63567 17.94996 120 ft 16 kts 11°
2026-05-04 17:42 59.63691 17.95043 117 ft 19 kts 11°
2026-05-04 17:43 59.63831 17.95093 113 ft 21 kts 11°
2026-05-04 17:43 59.63979 17.95147 111 ft 22 kts 11°
2026-05-04 17:43 59.64085 17.95188 109 ft 0 kts 11°
2026-05-04 17:43 59.64086 17.95189 109 ft 0 kts 10°
2026-05-04 17:45 59.64091 17.95191 109 ft 9 kts 10°
2026-05-04 17:45 59.64202 17.95226 107 ft 22 kts
2026-05-04 17:46 59.64394 17.95297 106 ft 32 kts 12°
2026-05-04 17:46 59.64635 17.95379 106 ft 35 kts
2026-05-04 17:46 59.64866 17.95467 108 ft 33 kts 11°
2026-05-04 17:46 59.65083 17.95485 110 ft 30 kts 346°
2026-05-04 17:47 59.65277 17.95378 115 ft 27 kts 345°
2026-05-04 17:47 59.65454 17.95284 120 ft 25 kts 343°
2026-05-04 17:47 59.65614 17.95192 124 ft 22 kts 342°
2026-05-04 17:47 59.65678 17.95154 125 ft 0 kts 343°
2026-05-04 17:48 59.65681 17.95153 125 ft 0 kts 343°
2026-05-04 17:48 59.65686 17.95149 125 ft 0 kts 343°
2026-05-04 17:48 59.65694 17.95145 125 ft 1 kts 342°
2026-05-04 17:48 59.65706 17.95137 125 ft 2 kts 342°
2026-05-04 17:49 59.65722 17.95124 126 ft 2 kts 328°
2026-05-04 17:49 59.65745 17.95075 126 ft 8 kts 296°
2026-05-04 17:49 59.65736 17.94903 126 ft 17 kts 257°
2026-05-04 17:49 59.65702 17.94621 126 ft 24 kts 255°
2026-05-04 17:50 59.65665 17.94345 124 ft 21 kts 257°
2026-05-04 17:50 59.65637 17.94105 121 ft 11 kts 257°
2026-05-04 17:50 59.65593 17.93891 117 ft 16 kts 220°
2026-05-04 17:50 59.65514 17.93889 117 ft 15 kts 166°
2026-05-04 17:51 59.65478 17.93837 116 ft 2 kts 256°
2026-05-04 17:51 59.65461 17.93737 114 ft 0 kts 254°
2026-05-04 17:51 59.65461 17.93736 114 ft 0 kts 254°